Regional Weather Roundup
Issued by NWS Mt. Holly, NJ

Home | Current Version | Previous Version | Text Only | Print | Product List | Glossary On
Versions: 1 2 3 4 5 6 7 8 9 10 11 12 13 14 15 16 17 18 19 20 21 22 23 24 25 26 27 28 29 30 31 32 33 34 35 36 37 38 39 40 41 42 43 44 45 46 47 48 49 50
000
ASUS41 KPHI 240612
RWRPHI

REGIONAL WEATHER ROUNDUP
NATIONAL WEATHER SERVICE MOUNT HOLLY NJ
200 AM EDT MON JUL 24 2017

NOTE:  "FAIR" INDICATES FEW OR NO CLOUDS BELOW 12,000 FEET WITH NO
SIGNIFICANT WEATHER AND/OR OBSTRUCTIONS TO VISIBILITY.

 * = STATION DOES NOT REPORT PRECIPITATION (E.G. RAIN, SNOW, ETC.)
        OR FOG.

NJZ015>026-240700-
SOUTHERN NEW JERSEY

CITY           SKY/WX    TMP DP  RH WIND       PRES   REMARKS
POMONA         CLOUDY    74  73  97 N5        29.76F
6HR MIN TEMP:  74; 6HR MAX TEMP:  77; 6HR PCP:  0.74;

MILLVILLE      MOCLDY    74  74 100 NE8       29.76F
WRIGHTSTOWN    LGT RAIN  70  69  97 E6        29.77F
MOUNT HOLLY    CLOUDY    70  70 100 VRB6      29.77F
TRENTON        CLOUDY    71  68  90 E8        29.79F
6HR MIN TEMP:  71; 6HR MAX TEMP:  76; 6HR PCP:  0.11;


$$
NJZ001>014-240700-
NORTHERN NEW JERSEY

CITY           SKY/WX    TMP DP  RH WIND       PRES   REMARKS
SUSSEX         LGT RAIN  70  67  90 CALM      29.83F
ANDOVER*         N/A     70  66  87 CALM      29.83F
MORRISTOWN     CLOUDY    70  68  94 E3        29.83F
NEWARK         CLOUDY    74  66  76 SE9G17    29.82F
TETERBORO      CLOUDY    72  68  87 E7        29.82F
CALDWELL       CLOUDY    70  32  24 NE7       29.84F
SOMERVILLE     CLOUDY    73  67  81 E6        29.79F
ALLAIRE*       HVY RAIN  71  69  93 E9        29.82F
TOMS RIVER*    RAIN      71  71 100 E6        29.79F FOG

$$
PAZ043-044-047-054-055-060>062-066>071-240700-
EASTERN PENNSYLVANIA

CITY           SKY/WX    TMP DP  RH WIND       PRES   REMARKS
PHILADELPHIA   LGT RAIN  72  69  90 NE8       29.77F
6HR MIN TEMP:  72; 6HR MAX TEMP:  74; 6HR PCP:  0.24;

NORTH PHILA    CLOUDY    73  69  87 E6        29.80F
BLUE BELL*     CLOUDY    68  68 100 E7        29.79F
DOYLESTOWN     CLOUDY    69  67  93 CALM      29.79F
QUAKERTOWN*    CLOUDY    68  68 100 E5        29.81F
PERKASIE*      CLOUDY    68  68 100 E7        29.81F
POTTSTOWN      CLOUDY    69  69 100 CALM      29.80F
LANCASTER      CLOUDY    72  72 100 E6        29.77R
COATESVILLE    LGT RAIN  70  70 100 CALM      29.80R VSB 1/2
READING        CLOUDY    71  69  93 E6        29.77S
6HR MIN TEMP:  71; 6HR MAX TEMP:  75; 6HR PCP:  0.11;

ALLENTOWN      CLOUDY    71  66  84 E8        29.80F
6HR MIN TEMP:  71; 6HR MAX TEMP:  79; 6HR PCP:  0.17;

MOUNT POCONO   LGT RAIN  64  64 100 SE10      29.87S
6HR MIN TEMP:  64; 6HR MAX TEMP:  69; 6HR PCP:  0.07;

HAZLETON       LGT RAIN  66  64  94 E5        29.85F
LEHIGHTON      LGT RAIN  70  68  94 N3        29.81F
WILKES BARRE   LGT RAIN  70  66  87 NE3       29.83S

$$
DEZALL-MDZ008-012-015-019-020-240700-
DELAWARE AND EASTERN MARYLAND

CITY           SKY/WX    TMP DP  RH WIND       PRES   REMARKS
WILMINGTON     RAIN      73  72  96 NE9       29.76F
6HR MIN TEMP:  73; 6HR MAX TEMP:  75; 6HR PCP:  1.11;

DOVER          CLEAR     77  77 100 SE3       29.73R
GEORGETOWN     CLOUDY    77  73  87 S3        29.75F
6HR MIN TEMP:  76; 6HR MAX TEMP:  80;

EASTON         CLOUDY    79  75  88 SW6       29.79R
ABERDEEN       LGT RAIN  73  70  88 SW3       29.75F FOG
PATUXENT       PTCLDY    79  72  79 SW16G26   29.75S
OCEAN CITY     CLOUDY    78  74  87 W10       29.73F
WALLOPS ISLAND CLOUDY    80  71  74 W15G22    29.73F
CAMBRIDGE      PTCLDY    81  75  83 SW5G14    29.74S

$$
PAZ001-021-NYZ056-072-MDZ011-DCZ001-240700-
OTHER NEARBY LOCATIONS

CITY           SKY/WX    TMP DP  RH WIND       PRES   REMARKS
HARRISBURG     LGT RAIN  73  72  96 S8        29.75S
STATE COLLEGE  DRIZZLE   68  67  98 N3        29.78S
WILLIAMSPORT   RAIN      68  66  93 CALM      29.77F FOG
BINGHAMTON     LGT RAIN  62  62 100 S8        29.85R
NEW YORK CITY  CLOUDY    73  67  81 VRB6      29.86F
BALTIMORE      CLOUDY    73  72  96 VRB3      29.75R
WASHINGTON DC  MOCLDY    74  72  93 N5        29.76S

$$



USA.gov is the U.S. government's official web portal to all federal, state and local government web resources and services.